This demonstration page uses our WeatherBlox Daily Observations layout. Learn more.

38.89511, -77.03637

Hourly Observations for June 29, 2015

Temp ( °F °C ) Dew Point ( °F °C ) Humidity (%) Winds ( mph kmh ) Pressure ( in mb ) Visibility ( mi km ) Precip ( " mm )
12:52 am 00:52 Clear 68 20 55 13 64 64 SSW 7 11 29.88 1012 10 16.09344 0 0
1:52 am 01:52 Clear 70 21 54 12 57 57 W 7 11 29.88 1012 10 16.09344 0 0
2:52 am 02:52 Clear 66 19 55 13 68 68 SW 6 9 29.91 1013 10 16.09344 0 0
3:52 am 03:52 Clear 64 18 55 13 73 73 SSW 5 7 29.91 1013 10 16.09344 0 0
4:52 am 04:52 Clear 64 18 55 13 73 73 SSW 9 15 29.94 1014 10 16.09344 0 0
5:52 am 05:52 Mostly Sunny 63 17 54 12 73 73 WSW 5 7 29.97 1015 10 16.09344 0 0
6:52 am 06:52 Mostly Sunny 66 19 55 13 68 68 WSW 6 9 29.97 1015 10 16.09344 0 0
7:52 am 07:52 Mostly Sunny 70 21 55 13 60 60 S 6 9 29.97 1015 10 16.09344 0 0
8:52 am 08:52 Mostly Sunny 75 24 54 12 47 47 SW 9 15 30 1016 10 16.09344 0 0
9:52 am 09:52 Mostly Sunny 79 26 54 12 42 42 WSW 8 13 30 1016 10 16.09344 0 0
10:52 am 10:52 Mostly Sunny 81 27 55 13 42 42 W 10 17 29.97 1015 10 16.09344 0 0
11:52 am 11:52 Mostly Sunny 81 27 55 13 42 42 W 8 13 29.97 1015 10 16.09344 0 0
12:52 pm 12:52 Partly Cloudy 82 28 55 13 40 40 N 5 7 29.97 1015 10 16.09344 0 0
1:52 pm 13:52 Partly Cloudy 81 27 57 14 45 45 S 8 13 29.97 1015 10 16.09344 0 0
2:52 pm 14:52 Partly Cloudy 82 28 59 15 45 45 S 13 20 29.94 1014 10 16.09344 0 0
3:52 pm 15:52 Mostly Cloudy 82 28 57 14 42 42 S 13 20 29.94 1014 10 16.09344 0 0
4:52 pm 16:52 Partly Cloudy 82 28 54 12 37 37 S 10 17 29.94 1014 10 16.09344 0 0
5:52 pm 17:52 Partly Cloudy 82 28 57 14 42 42 S 9 15 29.94 1014 10 16.09344 0 0
6:52 pm 18:52 Partly Cloudy 81 27 57 14 45 45 S 9 15 29.94 1014 10 16.09344 0 0
7:52 pm 19:52 Partly Cloudy 77 25 63 17 61 61 S 8 13 29.94 1014 10 16.09344 0 0
8:52 pm 20:52 Partly Cloudy 77 25 61 16 57 57 S 6 9 29.94 1014 10 16.09344 0 0
9:52 pm 21:52 Partly Cloudy 73 23 64 18 74 74 S 6 9 29.94 1014 10 16.09344 0 0
10:52 pm 22:52 Partly Cloudy 75 24 61 16 61 61 S 7 11 29.94 1014 10 16.09344 0 0
11:52 pm 23:52 Clear 73 23 63 17 69 69 S 5 7 29.94 1014 10 16.09344 0 0

Powered by AerisWeather